Tracking 29932 objects as of 3-Dec-2024
HD Live streaming from Space Station
objects crossing your sky now

STARLINK-31329

Track STARLINK-31329 now!
10-day predictions
STARLINK-31329 is classified as:


NORAD ID: 59169
Int'l Code: 2024-044T
Perigee: 494.0 km
Apogee: 496.1 km
Inclination: 43.0 °
Period: 94.4 minutes
Semi major axis: 6866 km
RCS: Unknown
Launch date: March 4, 2024
Source: United States (US)
Launch site: AIR FORCE EASTERN TEST RANGE (AFETR)
Your satellite tracking list
Your tracking list is empty




NASA's NSSDC Master Catalog

Two Line Element Set (TLE):
1 59169U 24044T   24338.03092384 -.00008757  00000-0 -32495-3 0  9998
2 59169  43.0036 192.2577 0001533 273.7090  86.3586 15.25946284 42807
Source of the keplerian elements: AFSPC